{"data":{"norad_id":63977,"intl_designator":"2025-099AB","name":"STARLINK-34105","alt_names":[],"object_type":"PAYLOAD","status":"ACTIVE","operator":null,"country":"US","launch_date":"2025-05-13","launch_site_code":"AFETR","launch_vehicle":null,"mission":null,"orbit_class":"UNKNOWN","rcs_meters":null,"size_class":null,"mass_kg":null,"dimensions":null,"purposes":["comms"],"wikipedia_slug":null,"has_3d_model":false,"image_url":null,"decayed_at":null,"tle_current":{"epoch":"2026-09-20T09:30:26.639424Z","epoch_age_seconds":152710,"freshness":"FRESH","line1":"1 63977U 25099AB  26263.39614166  .00011470  00000+0  42556-3 0  9999","line2":"2 63977  42.9993 153.1870 0000806  29.5210 330.5687 15.27589122 77062","mean_motion":15.27589122,"eccentricity":8.06e-5,"inclination_deg":42.9993,"raan_deg":153.187,"arg_perigee_deg":29.521,"mean_anomaly_deg":330.5687,"bstar":0.00042556,"rev_number":7706,"period_min":94.266185799666,"perigee_km":482.46877222816,"apogee_km":483.57479102375,"semimajor_km":6861.158781626,"source":"CELESTRAK","updated_at":"2026-09-21T09:00:35.178955Z"}}}